THOR ABLESTAR DEB, 13511

Orbit data source: Space-Track

THOR ABLESTAR DEB, 13511 is space debris in LEO originally from a launch on Thu, 29 Jun 1961 UTC launched from the Air Force Eastern Test Range (AFETR). Debris objects in space refer to the collection of defunct objects orbiting the Earth. Examples of debris include non-operational satellites, rocket bodies, and fragments generated from explosions, collisions, or faulty payload assembly.

Loading next visibility...
Identifier
13511, 1961-015KU
Orbit
LEO
Country
Flag of USUS
Related business
Manufacturer
Unknown
Mission
Spacecraft
Bus & Motor
Unknown
Mass
Unknown
Launch date (UTC)
1961-06-29 (65 years ago)
Launch vehicle
Unknown
Launch site
Air Force Eastern Test Range (AFETR)
Object type
Payload
Rocket body
Debris
Shape & HBR
Unknown shape, 0.1 m
Radar Cross Section
Medium (>0.1 m² and <1 m²)

Expand to show TLE details & history
Last TLE update: 22 hours ago

TLE from 22 hours ago
0 THOR ABLESTAR DEB
1 13511U 61015KU  26173.40123560  .00000097  00000-0  19718-3 0  9999
2 13511  65.8400 208.9569 0119055 176.2451 196.0045 13.67837422291811
Epoch: 2026-06-22T09:37Z
TLE epoch observation values (Epoch: 2026-06-22T09:37:46.755Z)
Latitude
10.79205°
Longitude
158.80442°
Altitude
1,093.18 km
Speed
7.265 km/s
True Right ascension
14h 15m 20s
True Declination
10° 43' 55"
Sunlit
Object was in daylight at epoch
Visualization orbit readout
Latitude
Unknown
Longitude
Unknown
Altitude
Unknown
Speed
Unknown
Apparent Right ascension
Unknown
Apparent Declination
Unknown
Sunlit
N/A
Visualization observer readout
Local Sidereal Time
18:34:58
Azimuth
Unknown
Elevation
Unknown
Doppler factor
Unknown
Orbital elements
Apogee altitude
1,093.777 km
Perigee altitude
917.956 km
Semi-major axis
7,384.003 km
Eccentricity
0.01191
Inclination
65.84°
RAAN
208.9569°
Arg. of periapsis
176.2451°
True anomaly
195.63366°
Mean anomaly
196.0045°
Eccentric anomaly
195.81856°
Mean motion
3.42062 °/min
Orbital period
105.24 mins
BSTAR
0.00019718
Loading maneuver chart data...
Computing Atmospheric mass density...

Documentation

Showing up to 5 results
|